Regional Weather Roundup
Issued by NWS Little Rock, AR

Home | Current Version | Previous Version | Text Only | Print | Product List | Glossary On
Versions: 1 2 3 4 5 6 7 8 9 10 11 12 13 14 15 16 17 18 19 20 21 22 23 24 25 26 27 28 29 30 31 32
000
ASUS44 KLZK 241212
RWRLZK

WEATHER ROUNDUP FOR ARKANSAS
NATIONAL WEATHER SERVICE LITTLE ROCK AR
600 AM CST WED JAN 24 2018

NOTE: "FAIR" INDICATES FEW OR NO CLOUDS BELOW 12,000 FEET WITH NO
SIGNIFICANT WEATHER AND/OR OBSTRUCTIONS TO VISIBILITY.

ARZ001-003-010-029-241300-
NORTHWEST ARKANSAS

CITY           SKY/WX    TMP DP  RH WIND       PRES   REMARKS
FAYETTEVILLE   CLEAR     19  18  95 CALM      30.37R
6HR MIN TEMP:  19; 6HR MAX TEMP:  24;

FORT SMITH     CLEAR     30  24  78 SW6       30.40R WCI  24
6HR MIN TEMP:  28; 6HR MAX TEMP:  34;

HARRISON       CLEAR     32  20  61 W3        30.33R
6HR MIN TEMP:  31; 6HR MAX TEMP:  36;

BENTONVILLE    CLEAR     29  21  72 CALM      30.38R
6HR MIN TEMP:  26; 6HR MAX TEMP:  29;

ROGERS         PTCLDY    29  20  69 W3        30.36R
6HR MIN TEMP:  28; 6HR MAX TEMP:  33;

SILOAM SPGS    CLEAR     26  21  81 CALM      30.38R
6HR MIN TEMP:  24; 6HR MAX TEMP:  30;

HIGHFILL       PTCLDY    30  21  69 NW5       30.36R WCI  25
6HR MIN TEMP:  23; 6HR MAX TEMP:  31;

SPRINGDALE     CLEAR     27  21  80 CALM      30.38
$$

ARZ004-005-016-241300-
NORTH CENTRAL ARKANSAS

CITY           SKY/WX    TMP DP  RH WIND       PRES   REMARKS
BATESVILLE     CLEAR     28  25  88 NW5       30.36R WCI  23
6HR MIN TEMP:  25; 6HR MAX TEMP:  33;

FLIPPIN        CLEAR     22  19  89 CALM      30.36R
6HR MIN TEMP:  22; 6HR MAX TEMP:  33;

MTN HOME       CLEAR     27  27 100 CALM      30.33
6HR MIN TEMP:  27; 6HR MAX TEMP:  31;

$$

ARZ040-041-241300-
WEST CENTRAL ARKANSAS

CITY           SKY/WX    TMP DP  RH WIND       PRES   REMARKS
MENA           CLEAR     28  28 100 CALM      30.38R
MOUNT IDA      CLEAR     25  22  88 CALM      30.35R
6HR MIN TEMP:  24; 6HR MAX TEMP:  28; 6HR PCP: TRACE;

$$

ARZ009-017-025-026-028-241300-
NORTHEAST ARKANSAS

CITY           SKY/WX    TMP DP  RH WIND       PRES   REMARKS
JONESBORO      FAIR      28  26  92 CALM      30.36R
6HR MIN TEMP:  27; 6HR MAX TEMP:  35;

NEWPORT          N/A     28  26  92 SW3       30.38R
6HR MIN TEMP:  27; 6HR MAX TEMP:  34;

WALNUT RIDGE   FAIR      25  25 100 W5        30.35R WCI  19
6HR MIN TEMP:  25; 6HR MAX TEMP:  33;

BLYTHEVILLE    FAIR      32  31  96 MISG      30.35R
6HR MIN TEMP:  31; 6HR MAX TEMP:  33;

$$

ARZ022-023-033-042-044-241300-
CENTRAL ARKANSAS

CITY           SKY/WX    TMP DP  RH WIND       PRES   REMARKS
LITTLE ROCK    CLEAR     28  26  92 W6        30.39R WCI  22
6HR MIN TEMP:  28; 6HR MAX TEMP:  38;

N LITTLE ROCK    N/A     35  26  70 CALM      30.33R
6HR MIN TEMP:  35; 6HR MAX TEMP:  38;

JACKSONVILLE   CLEAR     26  22  87 SW5       30.37R WCI  20
6HR MIN TEMP:  25; 6HR MAX TEMP:  36;

SEARCY         FAIR      23  23 100 CALM      30.39R
6HR MIN TEMP:  23; 6HR MAX TEMP:  28;

HOT SPRINGS    CLEAR     27  26  96 CALM      30.39R
6HR MIN TEMP:  27; 6HR MAX TEMP:  34;

RUSSELLVILLE   CLEAR     24  23  96 CALM      30.38R
6HR MIN TEMP:  23; 6HR MAX TEMP:  29;

CLINTON        FAIR      21  19  93 CALM      30.39R
$$

ARZ036-241300-
EAST ARKANSAS

CITY           SKY/WX    TMP DP  RH WIND       PRES   REMARKS
WEST MEMPHIS   FAIR      28  28 100 CALM      30.35R FOG
6HR MIN TEMP:  27; 6HR MAX TEMP:  33;

$$

ARZ050-053-066-070-073-241300-
SOUTHWEST ARKANSAS

CITY           SKY/WX    TMP DP  RH WIND       PRES   REMARKS
ARKADELPHIA    FAIR      25  22  88 CALM      30.41R
6HR MIN TEMP:  24; 6HR MAX TEMP:  29;

CAMDEN         FAIR      25  23  93 MISG      30.40R
TEXARKANA      CLEAR     33  24  69 CALM      30.41R
6HR MIN TEMP:  31; 6HR MAX TEMP:  38;

EL DORADO      FAIR      27  26  96 CALM      30.40R
6HR MIN TEMP:  27; 6HR MAX TEMP:  34;

DE QUEEN       CLEAR     24  23  96 CALM      30.40R
6HR MIN TEMP:  23; 6HR MAX TEMP:  28;

$$

ARZ056-057-069-241300-
SOUTHEAST ARKANSAS

CITY           SKY/WX    TMP DP  RH WIND       PRES   REMARKS
PINE BLUFF     FAIR      28  27  96 CALM      30.39R
6HR MIN TEMP:  28; 6HR MAX TEMP:  35;

STUTTGART      FAIR      33  30  88 NW5       30.39R WCI  29
6HR MIN TEMP:  31; 6HR MAX TEMP:  40;

MONTICELLO     FAIR      31  26  82 W5        30.38R WCI  26
6HR MIN TEMP:  30; 6HR MAX TEMP:  36;


$$






USA.gov is the U.S. government's official web portal to all federal, state and local government web resources and services.